| time (UTC) | temp F | wind direction | speed MPH | gust MPH | rain 1hr in | rain 24hr in | rain mn in | humidity % | barometer mb |
| 20260508063939 | 68 | 208 | 2.0 | 6.0 | 0.00 | 0.00 | 0.00 | 44 | 1017.1 |
| 20260508063039 | 68 | 233 | 2.0 | 6.0 | 0.00 | 0.00 | 0.00 | 43 | 1016.8 |
| 20260508062138 | 68 | 257 | 2.0 | 7.0 | 0.00 | 0.00 | 0.00 | 43 | 1016.7 |
| 20260508061238 | 68 | 260 | 4.0 | 9.0 | 0.00 | 0.00 | 0.00 | 43 | 1016.6 |
| 20260508055439 | 68 | 269 | 3.0 | 7.0 | 0.00 | 0.00 | 0.00 | 46 | 1016.1 |
| 20260508054539 | 68 | 262 | 2.0 | 4.0 | 0.00 | 0.00 | 0.00 | 48 | 1015.8 |
| 20260508053639 | 68 | 280 | 0.0 | 4.0 | 0.00 | 0.00 | 0.00 | 46 | 1015.5 |
| 20260508052738 | 67 | 292 | 2.0 | 4.0 | 0.00 | 0.00 | 0.00 | 52 | 1015.3 |
| 20260508050939 | 67 | 292 | 0.0 | 2.0 | 0.00 | 0.00 | 0.00 | 53 | 1015.0 |
| 20260508050039 | 67 | 292 | 0.0 | 2.0 | 0.00 | 0.00 | 0.00 | 54 | 1015.0 |
| 20260508045139 | 67 | 292 | 0.0 | 2.0 | 0.00 | 0.00 | 0.00 | 55 | 1014.9 |
| 20260508043339 | 66 | 292 | 0.0 | 2.0 | 0.00 | 0.00 | 0.00 | 55 | 1014.7 |
| 20260508041538 | 65 | 292 | 0.0 | 2.0 | 0.00 | 0.00 | 0.00 | 57 | 1014.3 |
| 20260508040639 | 66 | 292 | 0.0 | 2.0 | 0.00 | 0.00 | 0.00 | 57 | 1014.1 |
| 20260508035738 | 66 | 292 | 0.0 | 2.0 | 0.00 | 0.00 | 0.00 | 58 | 1013.9 |
| 20260508034839 | 65 | 292 | 0.0 | 2.0 | 0.00 | 0.00 | 0.00 | 59 | 1013.8 |
| 20260508033939 | 65 | 292 | 0.0 | 2.0 | 0.00 | 0.00 | 0.00 | 60 | 1013.9 |
| 20260508032138 | 65 | 292 | 0.0 | 2.0 | 0.00 | 0.00 | 0.00 | 61 | 1013.8 |
| 20260508031239 | 65 | 292 | 2.0 | 2.0 | 0.00 | 0.00 | 0.00 | 61 | 1014.0 |
| 20260508030339 | 65 | 292 | 0.0 | 2.0 | 0.00 | 0.00 | 0.00 | 61 | 1013.8 |
| 20260508023639 | 65 | 0 | 0.0 | 0.0 | 0.00 | 0.00 | 0.00 | 60 | 1013.9 |
| 20260508022739 | 65 | 292 | 0.0 | 2.0 | 0.00 | 0.00 | 0.00 | 60 | 1014.0 |
| 20260508021838 | 65 | 292 | 1.0 | 2.0 | 0.00 | 0.00 | 0.00 | 61 | 1014.0 |
| 20260508020938 | 65 | 292 | 0.0 | 2.0 | 0.00 | 0.00 | 0.00 | 61 | 1014.0 |
| 20260508020039 | 65 | 292 | 0.0 | 2.0 | 0.00 | 0.00 | 0.00 | 62 | 1014.1 |
| 20260508013339 | 65 | 292 | 0.0 | 2.0 | 0.00 | 0.00 | 0.00 | 63 | 1014.3 |
| 20260508012438 | 65 | 292 | 0.0 | 2.0 | 0.00 | 0.00 | 0.00 | 64 | 1014.4 |
| 20260508011538 | 65 | 292 | 0.0 | 2.0 | 0.00 | 0.00 | 0.00 | 63 | 1014.3 |
| 20260508004838 | 65 | 292 | 0.0 | 2.0 | 0.00 | 0.00 | 0.00 | 62 | 1014.7 |
| 20260508003938 | 65 | 292 | 1.0 | 2.0 | 0.00 | 0.00 | 0.00 | 63 | 1014.6 |
| 20260508003038 | 65 | 292 | 0.0 | 2.0 | 0.00 | 0.00 | 0.00 | 64 | 1014.5 |
| 20260508002139 | 65 | 292 | 0.0 | 2.0 | 0.00 | 0.00 | 0.00 | 64 | 1014.7 |
| 20260508001238 | 65 | 292 | 1.0 | 2.0 | 0.00 | 0.00 | 0.00 | 64 | 1014.7 |
| 20260508000338 | 65 | 292 | 0.0 | 2.0 | 0.00 | 0.00 | 0.00 | 65 | 1014.6 |
| 20260507235438 | 65 | 292 | 1.0 | 2.0 | 0.00 | 0.00 | 0.00 | 64 | 1014.8 |
| 20260507233639 | 66 | 272 | 2.0 | 4.0 | 0.00 | 0.00 | 0.00 | 63 | 1015.3 |
| 20260507232738 | 66 | 268 | 1.0 | 4.0 | 0.00 | 0.00 | 0.00 | 63 | 1015.4 |
| 20260507231839 | 66 | 240 | 2.0 | 4.0 | 0.00 | 0.00 | 0.00 | 62 | 1015.4 |
| 20260507230938 | 66 | 146 | 2.0 | 4.0 | 0.00 | 0.00 | 0.00 | 62 | 1015.4 |
| 20260507230039 | 66 | 230 | 1.0 | 4.0 | 0.00 | 0.00 | 0.00 | 62 | 1015.3 |
| 20260507225139 | 66 | 245 | 1.0 | 6.0 | 0.00 | 0.00 | 0.00 | 61 | 1015.5 |
| 20260507224238 | 66 | 257 | 4.0 | 6.0 | 0.00 | 0.00 | 0.00 | 60 | 1015.7 |
| 20260507223338 | 66 | 256 | 2.0 | 4.0 | 0.00 | 0.00 | 0.00 | 59 | 1015.6 |
| 20260507222439 | 66 | 240 | 2.0 | 4.0 | 0.00 | 0.00 | 0.00 | 59 | 1015.7 |
| 20260507221538 | 66 | 237 | 2.0 | 4.0 | 0.00 | 0.00 | 0.00 | 58 | 1015.8 |
| 20260507220638 | 66 | 164 | 1.0 | 4.0 | 0.00 | 0.00 | 0.00 | 57 | 1015.8 |
| 20260507215738 | 67 | 147 | 0.0 | 4.0 | 0.00 | 0.00 | 0.00 | 57 | 1015.9 |
| 20260507213939 | 67 | 208 | 2.0 | 4.0 | 0.00 | 0.00 | 0.00 | 55 | 1016.1 |
| 20260507212138 | 67 | 213 | 2.0 | 4.0 | 0.00 | 0.00 | 0.00 | 53 | 1016.3 |
| 20260507211238 | 67 | 233 | 1.0 | 4.0 | 0.00 | 0.00 | 0.00 | 53 | 1016.2 |
| 20260507205438 | 68 | 231 | 2.0 | 7.0 | 0.00 | 0.00 | 0.00 | 48 | 1016.3 |
| 20260507204538 | 68 | 219 | 3.0 | 6.0 | 0.00 | 0.00 | 0.00 | 46 | 1016.2 |
| 20260507203638 | 68 | 268 | 2.0 | 4.0 | 0.00 | 0.00 | 0.00 | 46 | 1016.0 |
| 20260507202739 | 68 | 273 | 2.0 | 4.0 | 0.00 | 0.00 | 0.00 | 46 | 1016.2 |
| 20260507201838 | 68 | 280 | 2.0 | 4.0 | 0.00 | 0.00 | 0.00 | 47 | 1016.1 |
| 20260507200938 | 68 | 282 | 2.0 | 4.0 | 0.00 | 0.00 | 0.00 | 47 | 1016.1 |
| 20260507200038 | 68 | 271 | 2.0 | 2.0 | 0.00 | 0.00 | 0.00 | 46 | 1016.1 |
| 20260507194239 | 68 | 268 | 1.0 | 4.0 | 0.00 | 0.00 | 0.00 | 45 | 1016.2 |
| 20260507193338 | 68 | 277 | 2.0 | 4.0 | 0.00 | 0.00 | 0.00 | 45 | 1016.0 |
| 20260507192438 | 68 | 292 | 1.0 | 4.0 | 0.00 | 0.00 | 0.00 | 45 | 1016.0 |
| 20260507191538 | 68 | 282 | 2.0 | 4.0 | 0.00 | 0.00 | 0.00 | 45 | 1015.9 |
| 20260507190638 | 68 | 261 | 2.0 | 2.0 | 0.00 | 0.00 | 0.00 | 45 | 1015.9 |
| 20260507185738 | 68 | 248 | 2.0 | 4.0 | 0.00 | 0.00 | 0.00 | 45 | 1015.9 |
| 20260507184838 | 68 | 230 | 2.0 | 4.0 | 0.00 | 0.00 | 0.00 | 44 | 1016.1 |
| 20260507183938 | 68 | 257 | 1.0 | 4.0 | 0.00 | 0.00 | 0.00 | 44 | 1016.1 |
| 20260507183038 | 68 | 243 | 0.0 | 4.0 | 0.00 | 0.00 | 0.00 | 44 | 1015.9 |
| 20260507182138 | 69 | 144 | 1.0 | 4.0 | 0.00 | 0.00 | 0.00 | 44 | 1016.0 |
| 20260507181238 | 69 | 239 | 2.0 | 4.0 | 0.00 | 0.00 | 0.00 | 43 | 1016.1 |
| 20260507180338 | 69 | 195 | 2.0 | 4.0 | 0.00 | 0.00 | 0.00 | 44 | 1016.1 |
| 20260507174538 | 69 | 271 | 1.0 | 6.0 | 0.00 | 0.00 | 0.00 | 46 | 1016.0 |
| 20260507173638 | 69 | 245 | 3.0 | 9.0 | 0.00 | 0.00 | 0.00 | 45 | 1015.9 |
| 20260507171838 | 70 | 253 | 4.0 | 8.0 | 0.00 | 0.00 | 0.00 | 44 | 1016.0 |
| 20260507170938 | 71 | 260 | 2.0 | 8.0 | 0.00 | 0.00 | 0.00 | 40 | 1016.0 |
| 20260507170038 | 71 | 243 | 3.0 | 7.0 | 0.00 | 0.00 | 0.00 | 41 | 1015.7 |
| 20260507165138 | 71 | 224 | 5.0 | 7.0 | 0.00 | 0.00 | 0.00 | 37 | 1015.5 |
| 20260507164238 | 72 | 183 | 2.0 | 6.0 | 0.00 | 0.00 | 0.00 | 40 | 1015.4 |
| 20260507163339 | 71 | 166 | 2.0 | 7.0 | 0.00 | 0.00 | 0.00 | 42 | 1015.4 |
| 20260507162438 | 72 | 198 | 1.0 | 7.0 | 0.00 | 0.00 | 0.00 | 41 | 1015.6 |
| 20260507161539 | 72 | 121 | 2.0 | 4.0 | 0.00 | 0.00 | 0.00 | 41 | 1015.7 |
| 20260507160638 | 72 | 107 | 3.0 | 7.0 | 0.00 | 0.00 | 0.00 | 39 | 1015.7 |
| 20260507155738 | 72 | 133 | 2.0 | 7.0 | 0.00 | 0.00 | 0.00 | 39 | 1015.6 |
| 20260507154838 | 72 | 257 | 2.0 | 6.0 | 0.00 | 0.00 | 0.00 | 40 | 1015.8 |
| 20260507153938 | 72 | 250 | 1.0 | 6.0 | 0.00 | 0.00 | 0.00 | 42 | 1015.8 |
| 20260507152138 | 73 | 266 | 5.0 | 9.0 | 0.00 | 0.00 | 0.00 | 45 | 1016.2 |
| 20260507151238 | 72 | 250 | 7.0 | 9.0 | 0.00 | 0.00 | 0.00 | 45 | 1016.3 |
| 20260507150338 | 74 | 146 | 2.0 | 6.0 | 0.00 | 0.00 | 0.00 | 37 | 1016.1 |
| 20260507145439 | 74 | 247 | 2.0 | 9.0 | 0.00 | 0.00 | 0.00 | 38 | 1016.2 |
| 20260507144538 | 73 | 262 | 6.0 | 11.0 | 0.00 | 0.00 | 0.00 | 37 | 1016.2 |
| 20260507142738 | 74 | 211 | 3.0 | 11.0 | 0.00 | 0.00 | 0.00 | 34 | 1016.2 |
| 20260507141838 | 75 | 176 | 4.0 | 11.0 | 0.00 | 0.00 | 0.00 | 31 | 1016.3 |
| 20260507140938 | 74 | 255 | 5.0 | 11.0 | 0.00 | 0.00 | 0.00 | 31 | 1016.2 |
| 20260507140038 | 75 | 236 | 6.0 | 11.0 | 0.00 | 0.00 | 0.00 | 31 | 1016.0 |
| 20260507135138 | 76 | 231 | 4.0 | 13.0 | 0.00 | 0.00 | 0.00 | 31 | 1015.9 |
| 20260507134238 | 77 | 201 | 4.0 | 13.0 | 0.00 | 0.00 | 0.00 | 31 | 1015.8 |
| 20260507133338 | 76 | 176 | 3.0 | 11.0 | 0.00 | 0.00 | 0.00 | 33 | 1015.8 |
| 20260507132438 | 76 | 253 | 5.0 | 11.0 | 0.00 | 0.00 | 0.00 | 34 | 1015.8 |
| 20260507131539 | 75 | 260 | 4.0 | 9.0 | 0.00 | 0.00 | 0.00 | 32 | 1015.7 |
| 20260507130638 | 75 | 238 | 5.0 | 11.0 | 0.00 | 0.00 | 0.00 | 33 | 1015.8 |
| 20260507124838 | 72 | 251 | 7.0 | 13.0 | 0.00 | 0.00 | 0.00 | 46 | 1016.1 |
| 20260507123938 | 72 | 256 | 3.0 | 11.0 | 0.00 | 0.00 | 0.00 | 46 | 1016.4 |
| 20260507123038 | 72 | 260 | 8.0 | 11.0 | 0.00 | 0.00 | 0.00 | 43 | 1016.3 |
| 20260507122138 | 73 | 246 | 5.0 | 9.0 | 0.00 | 0.00 | 0.00 | 45 | 1016.4 |
| 20260507120338 | 74 | 257 | 3.0 | 11.0 | 0.00 | 0.00 | 0.00 | 48 | 1016.5 |
| 20260507115438 | 74 | 167 | 4.0 | 8.0 | 0.00 | 0.00 | 0.00 | 52 | 1016.5 |
| 20260507114538 | 74 | 209 | 2.0 | 15.0 | 0.00 | 0.00 | 0.00 | 54 | 1016.5 |
| 20260507112738 | 73 | 236 | 3.0 | 13.0 | 0.00 | 0.00 | 0.00 | 49 | 1016.8 |
| 20260507111838 | 73 | 222 | 4.0 | 13.0 | 0.00 | 0.00 | 0.00 | 49 | 1016.7 |
| 20260507110938 | 73 | 216 | 3.0 | 11.0 | 0.00 | 0.00 | 0.00 | 50 | 1016.8 |
| 20260507105138 | 73 | 211 | 5.0 | 14.0 | 0.00 | 0.00 | 0.00 | 50 | 1016.7 |
| 20260507104238 | 71 | 242 | 8.0 | 17.0 | 0.00 | 0.00 | 0.00 | 59 | 1016.6 |
| 20260507103338 | 73 | 218 | 4.0 | 13.0 | 0.00 | 0.00 | 0.00 | 59 | 1016.5 |
| 20260507102438 | 74 | 238 | 4.0 | 11.0 | 0.00 | 0.00 | 0.00 | 57 | 1016.2 |
| 20260507101538 | 73 | 222 | 4.0 | 9.0 | 0.00 | 0.00 | 0.00 | 60 | 1016.1 |
| 20260507100638 | 74 | 117 | 2.0 | 11.0 | 0.00 | 0.00 | 0.00 | 57 | 1016.1 |
| 20260507095738 | 74 | 231 | 3.0 | 9.0 | 0.00 | 0.00 | 0.00 | 58 | 1016.2 |
| 20260507094838 | 74 | 215 | 3.0 | 8.0 | 0.00 | 0.00 | 0.00 | 56 | 1016.2 |
| 20260507093938 | 74 | 173 | 4.0 | 8.0 | 0.00 | 0.00 | 0.00 | 54 | 1016.2 |
| 20260507092138 | 75 | 226 | 2.0 | 6.0 | 0.00 | 0.00 | 0.00 | 46 | 1016.2 |
| 20260507090338 | 74 | 129 | 2.0 | 6.0 | 0.00 | 0.00 | 0.00 | 45 | 1016.0 |
| 20260507085438 | 74 | 115 | 2.0 | 6.0 | 0.00 | 0.00 | 0.00 | 44 | 1016.0 |
| 20260507084538 | 74 | 121 | 2.0 | 7.0 | 0.00 | 0.00 | 0.00 | 45 | 1016.0 |
| 20260507083638 | 73 | 132 | 3.0 | 6.0 | 0.00 | 0.00 | 0.00 | 45 | 1016.2 |
| 20260507082738 | 74 | 186 | 0.0 | 4.0 | 0.00 | 0.00 | 0.00 | 44 | 1016.1 |
| 20260507081838 | 74 | 164 | 2.0 | 4.0 | 0.00 | 0.00 | 0.00 | 42 | 1015.9 |
| 20260507080938 | 73 | 182 | 3.0 | 4.0 | 0.00 | 0.00 | 0.00 | 45 | 1016.0 |
| 20260507075138 | 72 | 112 | 2.0 | 7.0 | 0.00 | 0.00 | 0.00 | 46 | 1016.0 |
| 20260507074238 | 72 | 251 | 4.0 | 8.0 | 0.00 | 0.00 | 0.00 | 45 | 1015.9 |
| 20260507072438 | 71 | 202 | 2.0 | 4.0 | 0.00 | 0.00 | 0.00 | 46 | 1015.5 |
| 20260507071538 | 72 | 120 | 2.0 | 4.0 | 0.00 | 0.00 | 0.00 | 47 | 1015.7 |
| 20260507070638 | 71 | 159 | 2.0 | 6.0 | 0.00 | 0.00 | 0.00 | 50 | 1015.8 |
| 20260507065738 | 71 | 153 | 2.0 | 6.0 | 0.00 | 0.00 | 0.00 | 50 | 1015.9 |